STARLINK-31854, 59671

Orbit data source: Space-Track

STARLINK-31854, 59671 is a payload satellite owned by SpaceX/Seattle (US) in LEO that was launched on Mon, 06 May 2024 UTC via an FALCON 9 launch vehicle from the Air Force Eastern Test Range (AFETR). Payload-class satellites include a variety of spacecraft equipped with specific instruments for various scientific and technological missions. These include communications satellites like Starlink; space stations such as the ISS; scientific satellites like the Hubble; Earth observation satellites from companies like Planet Labs, Umbra, and HawkEye 360; GPS; miniature CubeSats for education and research; and military/defense satellites.

Loading next visibility...
Identifier
59671, 2024-084T
Orbit
LEO
Country
Flag of USUS
Related business
Manufacturer
SpaceX/Seattle
Mission
Operational Commercial Communications
Bus & Motor
STARLINK V2M, Unknown motor
Mass
730 kg wet, ~700 kg dry
Launch date (UTC)
2024-05-06 (1 year ago)
Launch vehicle
FALCON 9
Launch site
Air Force Eastern Test Range (AFETR)
Object type
Payload
Rocket body
Debris
Shape & HBR
Box + 2 Pan, 17.7 m
Radar Cross Section
33.884 m², Large (>1 m²)

Expand to show TLE details & history
Last TLE update: 6 hours ago

TLE from 6 hours ago
0 STARLINK-31854
1 59671U 24084T   25288.55570466  .00007138  00000-0  26864-3 0  9997
2 59671  43.0026 108.4086 0001369 280.5376  79.5321 15.27582268 82533
Epoch: 2025-10-15T13:20Z
TLE epoch observation values (Epoch: 2025-10-15T13:20:12.882Z)
Latitude
-0.00005°
Longitude
-115.97322°
Altitude
482.648 km
Speed
7.626 km/s
True Right ascension
07h 13m 38s
True Declination
0° 00' 00"
Sunlit
Object was in daylight at epoch
Visualization orbit readout
Latitude
Unknown
Longitude
Unknown
Altitude
Unknown
Speed
Unknown
Apparent Right ascension
Unknown
Apparent Declination
Unknown
Sunlit
N/A
Visualization observer readout
Local Sidereal Time
13:46:19
Azimuth
Unknown
Elevation
Unknown
Doppler factor
Unknown
Orbital elements
Apogee altitude
485.927 km
Perigee altitude
484.047 km
Semi-major axis
6,863.124 km
Eccentricity
0.00014
Inclination
43.0026°
RAAN
108.4086°
Arg. of periapsis
280.5376°
True anomaly
79.54753°
Mean anomaly
79.5321°
Eccentric anomaly
79.53981°
Mean motion
3.81734 °/min
Orbital period
94.31 mins
BSTAR
0.00026864
Loading maneuver chart data...
Computing Atmospheric mass density...
Loading historical data...
Loading historical data...
Loading historical data...
Loading historical data...
Loading historical data...
Loading historical data...
Loading historical data...

Documentation

Showing up to 5 results
|